This is the latest recevied weather packets stored in our database for station/object KM5VY. If no packets are shown the sender has not sent any weather packets the latest 10 day(s).
| Time | Temp. | Humidity | Pressure | Rain* | Wind** | Luminosity | Snow |
|---|---|---|---|---|---|---|---|
| 1788288544 | 25° C | 50% | 1025.7 hPa | 0 mm | - | - | - |
| 1788287943 | 24.44° C | 50% | 1025.7 hPa | 0 mm | - | - | - |
| 1788287342 | 23.89° C | 52% | 1026.1 hPa | 0 mm | - | - | - |
| 1788286741 | 23.33° C | 53% | 1026.1 hPa | 0 mm | - | - | - |
| 1788286140 | 22.78° C | 53% | 1026.4 hPa | 0 mm | - | - | - |
| 1788285539 | 22.78° C | 56% | 1026.1 hPa | 0 mm | - | - | - |
| 1788284938 | 22.78° C | 56% | 1026.4 hPa | 0 mm | - | - | - |
| 1788284337 | 21.67° C | 59% | 1026.4 hPa | 0 mm | - | - | - |
| 1788283737 | 21.67° C | 58% | 1026.4 hPa | 0 mm | - | - | - |
| 1788283135 | 21.67° C | 59% | 1026.4 hPa | 0 mm | - | - | - |
| 1788282534 | 21.67° C | 59% | 1026.4 hPa | 0 mm | - | - | - |
| 1788281933 | 21.67° C | 60% | 1026.1 hPa | 0 mm | - | - | - |
| 1788281332 | 21.67° C | 61% | 1026.4 hPa | 0 mm | - | - | - |
| 1788280733 | 21.67° C | 62% | 1026.1 hPa | 0 mm | - | - | - |
| 1788280130 | 21.11° C | 64% | 1026.1 hPa | 0 mm | - | - | - |
| 1788279529 | 20.56° C | 65% | 1026.1 hPa | 0 mm | - | - | - |
| 1788278928 | 20° C | 69% | 1026.1 hPa | 0 mm | - | - | - |
| 1788278327 | 18.89° C | 72% | 1026.1 hPa | 0 mm | - | - | - |
| 1788277726 | 18.33° C | 74% | 1026.1 hPa | 0 mm | - | - | - |
| 1788277125 | 18.33° C | 75% | 1026.1 hPa | 0 mm | - | - | - |
| 1788276524 | 18.33° C | 76% | 1026.1 hPa | 0 mm | - | - | - |
| 1788275923 | 17.78° C | 77% | 1026.1 hPa | 0 mm | - | - | - |
| 1788275322 | 17.22° C | 78% | 1026.1 hPa | 0 mm | - | - | - |
| 1788274721 | 16.67° C | 78% | 1026.1 hPa | 0 mm | - | - | - |
| 1788274120 | 16.11° C | 78% | 1026.1 hPa | 0 mm | - | - | - |
* Rain latest hour (hover to see other rain measurements)
** Current wind speed in m/s (hover to see current wind gust speed)